Location: Berg
(47.2344°N, 9.5296°E)
Time: 23:32:30
(UTC+00:00)

AAUSAT CUBESAT 2 - Pass Details

Date: 30 November 2021
Orbit: 571 x 586 km, 97.5° (Epoch: 19 January)

Event Time Altitude Azimuth Distance (km) Brightness Sun altitude
Rises 05:06:47 0° 7° (N) 2,795 ? -16.3°
Reaches altitude 10° 05:09:00 10° 1° (N) 1,893 ? -16.0°
Maximum altitude 05:12:55 46° 289° (WNW) 785 ? -15.3°
Drops below altitude 10° 05:16:50 10° 216° (SW) 1,886 ? -14.7°
Sets 05:19:02 0° 210° (SSW) 2,783 ? -14.3°
